Regional Weather Roundup
Issued by NWS

Home | Current Version | Previous Version | Text Only | Print | Product List | Glossary On
Versions: 1 2 3 4 5 6 7 8 9 10 11 12 13 14 15 16 17 18 19 20 21 22 23 24 25 26 27 28 29 30 31 32 33 34 35 36 37 38 39 40 41 42 43 44 45 46 47 48 49 50
000
ASCA42 TJSJ 281610
RWRPR
PUERTO RICO/U.S. VIRGIN ISLANDS HOURLY WEATHER ROUNDUP
NATIONAL WEATHER SERVICE SAN JUAN PR
1200 PM AST THU MAY 28 2015

PRZ001-004-281700-
PUERTO RICO

CITY           SKY/WX    TMP DP  RH WIND       PRES   REMARKS
SAN JUAN LMM   MOSUNNY   82  73  74 NE10      29.98F
PONCE          MOSUNNY   90  72  55 S12G17    29.95S HX  96
MAYAGUEZ       PTSUNNY   88  68  51 W7        30.01  HX  91
AGUADILLA      MOSUNNY   86  70  58 N9        30.00F HX  90
$$

PRZ006-007-281700-
U.S. VIRGIN ISLANDS

CITY           SKY/WX    TMP DP  RH WIND       PRES   REMARKS
CHARLOTTE AMA  MOSUNNY   84  73  70 S6        29.99F HX  91
CHRISTIANSTED  MOSUNNY   86  73  66 SE9       30.00F HX  93
$$

HOURLY WEATHER ROUNDUP FOR THE NEWS MEDIA

CITY           SKY/WX    TMP DP  RH WIND       PRES   REMARKS
ORLANDO        PTSUNNY   82  63  52 E6        30.16S
NEW YORK       CLOUDY    68  60  75 S6        30.19S
NEWARK         PTSUNNY   81  69  67 S5        30.15F
CHICAGO        PTSUNNY   78  52  40 SE6       30.20F
HARTFORD       PTSUNNY   69  62  78 SW16G23   30.17S
BOSTON         MOSUNNY   79  64  60 S15       30.11F
DALLAS         PTSUNNY   80  70  71 VRB6      30.09S
PHILADELPHIA   PTSUNNY   81  68  64 SW9       30.17F
LOS ANGELES    CLOUDY    60  55  83 S5        30.01R
WASHINGTON DC  PTSUNNY   83  65  54 W3        30.20R


USA.gov is the U.S. government's official web portal to all federal, state and local government web resources and services.